Location: Cheching
(60.0667°N, 164.2167°W)
Time: 00:50:32
(UTC+00:00)

NOAA 15 - Visible Passes

Search period start: 24 January 2021 00:00
Search period end: 03 February 2021 00:00
Orbit: 798 x 812 km, 98.7° (Epoch: 23 January)

Date Brightness Start Highest point End Pass type
(mag) Time Alt. Az. Time Alt. Az. Time Alt. Az.
24 Jan 4.7 04:28:17 10° SE 04:33:22 52° ENE 04:38:29 10° NNW visible
24 Jan 5.9 06:08:22 10° SSW 06:13:20 41° W 06:18:21 10° NNW visible
24 Jan 6.2 18:12:45 10° NNE 18:17:44 39° E 18:22:43 10° SSE visible
25 Jan 5.1 04:03:32 10° ESE 04:08:22 38° NE 04:13:14 10° N visible
25 Jan 5.2 05:42:49 10° S 05:48:01 59° WSW 05:53:16 10° NNW visible
25 Jan 7.5 07:26:08 10° WSW 07:28:57 14° W 07:31:48 10° NW visible
25 Jan 6.9 17:47:48 10° NNE 17:52:20 28° E 17:56:51 10° SSE visible
26 Jan 5.4 03:38:58 10° ESE 03:43:26 29° NE 03:47:55 10° N visible
26 Jan 4.6 05:17:30 10° SSE 05:22:47 83° WSW 05:28:08 10° NNW visible
26 Jan 7.0 06:59:28 10° SW 07:03:23 21° W 07:07:20 10° NW visible
26 Jan 7.4 17:23:01 10° NE 17:26:51 20° E 17:30:39 10° SE visible
27 Jan 4.5 04:52:23 10° SSE 04:57:38 71° ENE 05:02:56 10° NNW visible
27 Jan 6.5 06:33:20 10° SSW 06:37:54 29° W 06:42:32 10° NNW visible
27 Jan 7.7 16:58:39 10° NE 17:01:15 14° E 17:03:51 10° ESE visible
28 Jan 4.8 04:27:28 10° SE 04:32:34 51° ENE 04:37:42 10° NNW visible
28 Jan 5.8 06:07:32 10° SSW 06:12:30 42° W 06:17:33 10° NNW visible
28 Jan 6.3 18:11:57 10° NNE 18:16:56 39° E 18:21:53 10° SSE visible
29 Jan 5.1 04:02:44 10° ESE 04:07:33 38° NE 04:12:25 10° N visible
29 Jan 5.2 05:41:59 10° S 05:47:12 60° WSW 05:52:29 10° NNW visible
29 Jan 7.5 07:25:15 10° WSW 07:28:08 15° W 07:31:02 10° NW visible
29 Jan 7.0 17:47:00 10° NNE 17:51:32 27° E 17:56:01 10° SSE visible
30 Jan 4.6 05:16:41 10° SSE 05:21:58 84° WSW 05:27:20 10° NNW visible
30 Jan 7.0 06:58:37 10° SW 07:02:34 21° W 07:06:33 10° NW visible
30 Jan 7.5 17:22:14 10° NE 17:26:01 19° E 17:29:47 10° SE visible
31 Jan 4.5 04:51:35 10° SSE 04:56:50 70° ENE 05:02:08 10° NNW visible
31 Jan 6.5 06:32:29 10° SSW 06:37:05 30° W 06:41:44 10° NNW visible
31 Jan 7.7 16:57:53 10° NE 17:00:26 13° E 17:02:58 10° ESE visible
01 Feb 4.8 04:26:40 10° SE 04:31:45 51° ENE 04:36:54 10° NNW visible
01 Feb 5.8 06:06:42 10° SSW 06:11:42 42° W 06:16:45 10° NNW visible
01 Feb 6.3 18:11:09 10° NNE 18:16:07 38° E 18:21:04 10° SSE visible
02 Feb 5.1 04:01:56 10° ESE 04:06:46 37° NE 04:11:37 10° N visible
02 Feb 5.2 05:41:10 10° S 05:46:23 60° WSW 05:51:41 10° NNW visible
02 Feb 7.5 07:24:22 10° WSW 07:27:19 15° W 07:30:17 10° NW visible
02 Feb 7.0 17:46:12 10° NNE 17:50:43 27° E 17:55:12 10° SSE visible
